[[{"header":{"parameterUnit":"m.s-1","parameterCategory":1,"la1":30.2991,"la2":30.254,"lo1":-89.0895,"lo2":-89.0444,"dx":0.0017,"dy":0.0017,"nx":28,"ny":28,"refTime":"2022-12-23T15:00:00:Z","depth":0,"parameterNumber":2,"parameterNumberName":"U-component_of_WINDS"},"data":[0,0,0,0,0,0,0,0,0,0,0,0,0,0,0,0,0,0,0,0,0,0,0,0,0,0,0,0,0,0,0,0,0,0,0,0,0,0,0,0,0,0,0,0,0,0,0,0,0,0,0,0,0,0,0,0,0,0,0.8674,0.8673,0,0.8637,0.8637,0.8636,0.8632,0.8632,0.8633,0.8633,0.8592,0.8591,0.8589,0,0,0,0,0,0,0,0,0,0,0,0,0,0.8738,0.8737,0.8674,0.8673,0.8673,0.8637,0.8637,0.8636,0.8632,0.8632,0.8633,0.8633,0.8593,0.8591,0.8589,0,0,0,0,0,0,0,0,0,0,0,0,0,0.8707,0.8737,0.8674,0.8666,0.8665,0.8637,0.8637,0.8636,0.8632,0.8632,0.8633,0.8633,0.8593,0.8591,0.8589,0.8565,0,0,0.8583,0.8582,0,0,0,0,0,0,0,0,0.8709,0.8704,0.8668,0.8667,0.8666,0.864,0.8645,0.8612,0.8631,0.8644,0.8633,0.8634,0.8607,0.8604,0.8596,0.8563,0.8561,0.8582,0.8581,0.858,0.858,0,0,0,0,0,0,0,0.8711,0.8706,0.8659,0.8668,0.8666,0.8664,0.8661,0.8638,0.8623,0.8643,0.8643,0.8639,0.8607,0.8598,0.8595,0.8561,0.8582,0.8581,0.8579,0.8578,0.8507,0.8506,0,0,0,0,0,0,0.8715,0.8708,0.866,0.8658,0.8689,0.8663,0.8658,0.8647,0.8623,0.862,0.8638,0.8639,0.8601,0.8597,0.8593,0.8564,0.858,0.8578,0.8577,0.8507,0.8507,0.8506,0,0,0,0,0,0,0.8716,0.871,0.8662,0.8683,0.8677,0.8661,0.8649,0.8646,0.8638,0.862,0.8617,0.8632,0.8602,0.8596,0.8572,0.8562,0.8577,0.8575,0.8508,0.8507,0.8506,0.8504,0,0,0,0,0,0,0.8718,0.8711,0.8702,0.8683,0.8676,0.8642,0.8648,0.8645,0.8634,0.8634,0.8613,0.861,0.8602,0.8576,0.857,0.8559,0.8574,0.8509,0.8508,0.8507,0.8504,0.8503,0.8501,0,0,0,0,0,0.872,0.8702,0.8701,0.8696,0.8664,0.8641,0.8637,0.8628,0.8633,0.8624,0.8613,0.8611,0.8565,0.8573,0.8567,0.8555,0.8509,0.8508,0.8507,0.8505,0.8503,0.8501,0,0,0,0,0,0,0.8718,0.8699,0.8698,0.8673,0.8659,0.8641,0.8628,0.8626,0.861,0.861,0.86,0.8595,0.8571,0.8561,0.8571,0.8531,0.8537,0.8535,0.8538,0.8536,0.8535,0.8537,0.8572,0,0,0,0,0,0.8716,0.87,0.8683,0.8662,0.8656,0.8643,0.8633,0.8628,0.8612,0.8606,0.8593,0.8577,0.8559,0.8547,0.853,0.8504,0.8499,0.8493,0.8491,0.849,0.8487,0.8473,0.847,0.8501,0.8501,0.8501,0,0,0.8708,0.8696,0.8686,0.8662,0.865,0.8633,0.8638,0.862,0.8607,0.8603,0.8579,0.857,0.8551,0.8526,0.8515,0.8517,0.8478,0.8488,0.8487,0.8485,0.8471,0.8468,0.8466,0.85,0.8501,0.8501,0,0,0.8687,0.8676,0.8658,0.8647,0.863,0.8622,0.8618,0.86,0.8593,0.857,0.8567,0.8552,0.8521,0.8508,0.8498,0.8474,0.8471,0.8469,0.8459,0.8445,0.8443,0.8441,0.8432,0.8429,0.8466,0.8466,0.8466,0,0.868,0.8655,0.8648,0.8631,0.862,0.8618,0.8599,0.8588,0.8566,0.8558,0.8562,0.8524,0.8512,0.8484,0.8478,0.847,0.8465,0.847,0.8444,0.8442,0.8439,0.8431,0.8427,0.8466,0.8466,0.8466,0.8466,0,0.8647,0.863,0.8617,0.8597,0.8585,0.8567,0.8558,0.8546,0.8543,0.8535,0.8512,0.8497,0.8477,0.847,0.8466,0.8442,0.8444,0.8446,0.8452,0.8436,0.8428,0.8424,0.8465,0.8466,0.8466,0.8466,0,0,0.8621,0.8599,0.8594,0.8586,0.8568,0.8554,0.8536,0.8518,0.8508,0.8494,0.8478,0.8453,0.8455,0.8443,0.8438,0.8426,0.8408,0.843,0.8429,0.8426,0.8381,0.8378,0.8375,0.8408,0.8407,0.8406,0.8382,0,0.8596,0.8565,0.8559,0.8532,0.8516,0.8514,0.8499,0.8486,0.8478,0.8463,0.8455,0.8437,0.8442,0.8435,0.8423,0.8413,0.8399,0.8415,0.8392,0.8391,0.8395,0.837,0.8368,0.8345,0.8379,0.8378,0.8378,0,0.8563,0.8549,0.852,0.8505,0.8498,0.8484,0.8467,0.8454,0.8439,0.8435,0.8423,0.842,0.8401,0.8409,0.8383,0.8394,0.8384,0.8378,0.8377,0.8373,0.8382,0.8365,0.8338,0.8334,0.8373,0.8373,0.8373,0,0.8546,0.852,0.8499,0.8492,0.8474,0.8465,0.8457,0.8443,0.8433,0.8418,0.8411,0.8395,0.8385,0.8372,0.8364,0.8371,0.8339,0.8346,0.8333,0.8334,0.8325,0.8325,0.8295,0.8321,0.8321,0.8321,0.8321,0,0.8518,0.85,0.8491,0.8478,0.8458,0.8453,0.8433,0.8426,0.8414,0.8399,0.8397,0.8384,0.8375,0.836,0.8354,0.8333,0.8329,0.8324,0.8323,0.8324,0.8324,0.8316,0.8317,0.8321,0.8321,0.8321,0.8321,0,0.8495,0.8488,0.8466,0.8452,0.8448,0.8434,0.8422,0.8409,0.8403,0.8384,0.838,0.8369,0.8352,0.8344,0.8321,0.8318,0.8294,0.8294,0.8298,0.8298,0.8285,0.8286,0.8247,0.8242,0.8273,0.8273,0.8273,0,0.8477,0.8463,0.8448,0.8439,0.8431,0.8416,0.8406,0.8401,0.839,0.8374,0.8363,0.8346,0.8332,0.8304,0.8294,0.8278,0.8276,0.8264,0.8274,0.8275,0.8275,0.8275,0.8274,0.8262,0.8261,0.8261,0.8261,0,0.8445,0.8443,0.8429,0.8414,0.8403,0.8391,0.8378,0.8371,0.8364,0.8352,0.8335,0.8324,0.8303,0.8285,0.8269,0.826,0.8259,0.8259,0.8255,0.8254,0.8258,0.8255,0.8292,0.8259,0.8259,0.8259,0.8259,0.8259,0.8423,0.8411,0.8399,0.8384,0.8375,0.8364,0.8352,0.8345,0.8331,0.8313,0.8311,0.8293,0.828,0.8258,0.8249,0.8234,0.8237,0.8231,0.823,0.8228,0.8227,0.8262,0.8231,0.8232,0.8232,0.8232,0.8232,0,0.8391,0.8384,0.837,0.8354,0.8342,0.8344,0.8332,0.8321,0.8305,0.8294,0.8281,0.8261,0.8245,0.8235,0.8219,0.8209,0.8208,0.8205,0.8205,0.8203,0.8226,0.8231,0.8206,0.8206,0.8206,0.8206,0.8206,0.8206,0.8372,0.8352,0.8349,0.8325,0.8318,0.83,0.8293,0.8283,0.8274,0.8253,0.824,0.8234,0.8223,0.8207,0.8192,0.819,0.8183,0.818,0.8177,0.8198,0.8201,0.8203,0.8208,0.8179,0.8178,0.8155,0.8154,0.8154]},{"header":{"parameterUnit":"m.s-1","parameterCategory":1,"la1":30.2991,"la2":30.254,"lo1":-89.0895,"lo2":-89.0444,"dx":0.0017,"dy":0.0017,"nx":28,"ny":28,"refTime":"2022-12-23T15:00:00:Z","depth":0,"parameterNumber":3,"parameterNumberName":"V-component_of_WINDS"},"data":[0,0,0,0,0,0,0,0,0,0,0,0,0,0,0,0,0,0,0,0,0,0,0,0,0,0,0,0,0,0,0,0,0,0,0,0,0,0,0,0,0,0,0,0,0,0,0,0,0,0,0,0,0,0,0,0,0,0,-6.5549,-6.5551,0,-6.5772,-6.5774,-6.5777,-6.5709,-6.5704,-6.57,-6.5695,-6.5919,-6.5929,-6.594,0,0,0,0,0,0,0,0,0,0,0,0,0,-6.506,-6.5069,-6.5548,-6.5551,-6.5554,-6.5771,-6.5774,-6.5777,-6.571,-6.5704,-6.5698,-6.5693,-6.5916,-6.5928,-6.5941,0,0,0,0,0,0,0,0,0,0,0,0,0,-6.5276,-6.5072,-6.5548,-6.5547,-6.5549,-6.5771,-6.5774,-6.5778,-6.5711,-6.5704,-6.5697,-6.569,-6.5912,-6.5927,-6.5942,-6.6178,0,0,-6.5989,-6.5996,0,0,0,0,0,0,0,0,-6.5264,-6.5294,-6.5544,-6.5547,-6.555,-6.5705,-6.5684,-6.5912,-6.5713,-6.5649,-6.5695,-6.5687,-6.5854,-6.5873,-6.593,-6.6188,-6.6198,-6.5991,-6.6,-6.6007,-6.6011,0,0,0,0,0,0,0,-6.5249,-6.5284,-6.5636,-6.5548,-6.5551,-6.5533,-6.5556,-6.5727,-6.5788,-6.5654,-6.565,-6.5677,-6.5854,-6.5916,-6.5935,-6.6201,-6.599,-6.6004,-6.6014,-6.602,-6.6662,-6.6669,0,0,0,0,0,0,-6.5233,-6.5272,-6.5629,-6.5643,-6.5387,-6.5548,-6.5574,-6.5662,-6.5786,-6.5798,-6.5683,-6.5673,-6.5893,-6.5917,-6.5943,-6.6226,-6.6007,-6.6021,-6.603,-6.6654,-6.6664,-6.6672,0,0,0,0,0,0,-6.5223,-6.5265,-6.562,-6.5457,-6.5501,-6.5564,-6.5664,-6.5671,-6.5732,-6.5808,-6.5818,-6.5736,-6.5888,-6.5921,-6.612,-6.6233,-6.6028,-6.6042,-6.6645,-6.6657,-6.6668,-6.6796,0,0,0,0,0,0,-6.5209,-6.5262,-6.5353,-6.5459,-6.551,-6.5796,-6.5671,-6.568,-6.576,-6.5749,-6.5859,-6.5871,-6.5885,-6.6097,-6.6135,-6.6251,-6.6054,-6.6635,-6.665,-6.6664,-6.6782,-6.681,-6.6835,0,0,0,0,0,-6.5192,-6.538,-6.5358,-6.5402,-6.5625,-6.5802,-6.5831,-6.5845,-6.5769,-6.5861,-6.5909,-6.5867,-6.6214,-6.6118,-6.616,-6.6282,-6.6628,-6.6646,-6.6663,-6.677,-6.6805,-6.6834,0,0,0,0,0,0,-6.5284,-6.5394,-6.5371,-6.5599,-6.5692,-6.5791,-6.5907,-6.5881,-6.5997,-6.5982,-6.5992,-6.6018,-6.6222,-6.6271,-6.6162,-6.6516,-6.641,-6.6437,-6.6476,-6.651,-6.6536,-6.652,-6.6067,0,0,0,0,0,-6.5331,-6.5468,-6.5555,-6.5748,-6.5796,-6.5844,-6.5921,-6.5924,-6.602,-6.6058,-6.6121,-6.6215,-6.6344,-6.643,-6.6554,-6.6788,-6.6811,-6.6892,-6.6919,-6.694,-6.6964,-6.7091,-6.7128,-6.673,-6.6729,-6.6729,0,0,-6.543,-6.5506,-6.5591,-6.5768,-6.5841,-6.598,-6.5877,-6.6029,-6.6132,-6.6081,-6.6273,-6.6322,-6.6427,-6.6645,-6.6744,-6.6693,-6.7079,-6.6963,-6.6979,-6.6991,-6.7113,-6.715,-6.7184,-6.6741,-6.6739,-6.6737,0,0,-6.5681,-6.5753,-6.5921,-6.5996,-6.6107,-6.6137,-6.6178,-6.6281,-6.6312,-6.6505,-6.6469,-6.6591,-6.6815,-6.6891,-6.6959,-6.7238,-6.7204,-6.7278,-6.7417,-6.7541,-6.7572,-6.76,-6.77,-6.7735,-6.7301,-6.7301,-6.7301,0,-6.5789,-6.5999,-6.601,-6.6166,-6.6245,-6.6206,-6.6376,-6.6447,-6.6592,-6.6647,-6.6587,-6.6868,-6.6935,-6.717,-6.7238,-6.7295,-6.734,-6.7266,-6.7567,-6.7595,-6.7621,-6.7716,-6.7754,-6.7309,-6.7308,-6.7307,-6.7307,0,-6.6126,-6.6272,-6.6395,-6.6538,-6.663,-6.6792,-6.6826,-6.6918,-6.6912,-6.6948,-6.7145,-6.7225,-6.7364,-6.7419,-6.7415,-6.7654,-6.7619,-6.7564,-6.7457,-6.7667,-6.7757,-6.7793,-6.7321,-6.7318,-6.7316,-6.7314,0,0,-6.6443,-6.659,-6.6635,-6.6699,-6.6818,-6.6931,-6.709,-6.7227,-6.7305,-6.7406,-6.754,-6.773,-6.768,-6.7757,-6.776,-6.7869,-6.8085,-6.78,-6.7802,-6.785,-6.8352,-6.8394,-6.8436,-6.8062,-6.8069,-6.8075,-6.8343,0,-6.6704,-6.6986,-6.7001,-6.7256,-6.7391,-6.7355,-6.7494,-6.7581,-6.7619,-6.7738,-6.7778,-6.7913,-6.7836,-6.7883,-6.7989,-6.8036,-6.8185,-6.8017,-6.8186,-6.8192,-6.8161,-6.8482,-6.8527,-6.8777,-6.8378,-6.8384,-6.8389,0,-6.7047,-6.716,-6.743,-6.7529,-6.7586,-6.7711,-6.7838,-6.7952,-6.805,-6.8069,-6.8156,-6.8143,-6.8305,-6.8193,-6.8415,-6.83,-6.8369,-6.8403,-6.8413,-6.843,-6.8303,-6.8508,-6.8857,-6.8894,-6.8444,-6.8439,-6.8435,0,-6.7251,-6.747,-6.766,-6.7716,-6.7837,-6.7925,-6.798,-6.8071,-6.8152,-6.8262,-6.8315,-6.8442,-6.8512,-6.861,-6.8631,-6.8547,-6.8854,-6.8743,-6.8874,-6.8873,-6.894,-6.8936,-6.9306,-6.8985,-6.8984,-6.8983,-6.8983,0,-6.7541,-6.7708,-6.7753,-6.787,-6.8055,-6.8069,-6.8251,-6.8299,-6.838,-6.8505,-6.848,-6.8597,-6.8619,-6.874,-6.8757,-6.8939,-6.897,-6.8989,-6.8992,-6.8992,-6.899,-6.9039,-6.9022,-6.8993,-6.8991,-6.8989,-6.8987,0,-6.7801,-6.7838,-6.8043,-6.8141,-6.8169,-6.8301,-6.8384,-6.8496,-6.853,-6.8688,-6.8725,-6.8779,-6.8921,-6.8952,-6.9119,-6.913,-6.9346,-6.9331,-6.9314,-6.9313,-6.9442,-6.9429,-6.9856,-6.9912,-6.9554,-6.9557,-6.956,0,-6.7984,-6.8112,-6.8224,-6.8306,-6.8365,-6.8497,-6.8581,-6.8599,-6.8686,-6.8807,-6.8903,-6.9042,-6.9154,-6.9381,-6.9434,-6.9562,-6.955,-6.9691,-6.9569,-6.9565,-6.9553,-6.9545,-6.9558,-6.9714,-6.9718,-6.9721,-6.9724,0,-6.8306,-6.8318,-6.844,-6.8569,-6.8669,-6.8771,-6.8867,-6.8936,-6.8967,-6.9066,-6.9211,-6.9298,-6.9469,-6.9607,-6.9735,-6.9788,-6.9762,-6.9762,-6.9799,-6.9801,-6.9785,-6.9796,-6.9378,-6.9752,-6.9749,-6.9747,-6.9746,-6.9745,-6.8533,-6.8645,-6.8741,-6.8877,-6.8952,-6.9043,-6.9153,-6.9201,-6.9323,-6.9465,-6.9467,-6.9625,-6.9718,-6.9887,-6.9949,-7.0072,-7.0028,-7.0081,-7.0095,-7.0108,-7.012,-6.9765,-7.0095,-7.0094,-7.0093,-7.0093,-7.0092,0,-6.8854,-6.8914,-6.9039,-6.9176,-6.9283,-6.9249,-6.9354,-6.9446,-6.9586,-6.9675,-6.9786,-6.9952,-7.0086,-7.0149,-7.0281,-7.0367,-7.0358,-7.0401,-7.0395,-7.0408,-7.0152,-7.0107,-7.0406,-7.0406,-7.0406,-7.0406,-7.0406,-7.0405,-6.9033,-6.922,-6.9244,-6.9467,-6.9525,-6.9681,-6.9744,-6.9827,-6.9899,-7.0086,-7.0197,-7.0238,-7.0317,-7.0454,-7.0574,-7.0589,-7.0639,-7.0688,-7.0697,-7.0457,-7.0426,-7.0395,-7.0353,-7.0699,-7.0699,-7.0943,-7.0945,-7.0947]}]]